FW7644 Weather Reports


Display with metric or nautical units.
time (UTC)temp
F
wind
direction
speed
MPH
gust
MPH
rain 1hr
in
rain 24hr
in
rain mn
in
humidity
%
barometer
mb
20260506134658 80 0.0 0.0 0.00 0.00 0.00 58 1024.7
20260506134155 81 0.0 0.0 0.00 0.00 0.00 57 1024.8
20260506133653 81 0.0 0.0 0.00 0.00 0.00 60 1024.7
20260506133151 81 0.0 0.0 0.00 0.00 0.00 57 1024.8
20260506132649 82 0.0 0.0 0.00 0.00 0.00 58 1024.9
20260506132147 79 0.0 0.0 0.00 0.00 0.00 64 1024.9
20260506131645 80 0.0 0.0 0.00 0.00 0.00 65 1024.9
20260506131142 81 0.0 0.0 0.00 0.00 0.00 64 1025.1
20260506130640 81 0.0 0.0 0.00 0.00 0.00 66 1025.1
20260506130138 80 0.0 0.0 0.00 0.00 0.00 68 1025.1
20260506125636 78 0.0 0.0 0.00 0.00 0.00 72 1025.2
20260506125134 80 0.0 0.0 0.00 0.00 0.00 68 1025.1
20260506124632 79 0.0 0.0 0.00 0.00 0.00 69 1025.1
20260506124130 78 0.0 0.0 0.00 0.00 0.00 71 1025.1
20260506123628 77 0.0 0.0 0.00 0.00 0.00 72 1025.1
20260506123126 78 0.0 0.0 0.00 0.00 0.00 70 1025.1
20260506122624 77 0.0 0.0 0.00 0.00 0.00 71 1025.0
20260506122122 76 0.0 0.0 0.00 0.00 0.00 76 1025.0
20260506121621 74 0.0 0.0 0.00 0.00 0.00 77 1024.9
20260506121119 76 0.0 0.0 0.00 0.00 0.00 72 1025.0
20260506120617 75 0.0 0.0 0.00 0.00 0.00 74 1025.0
20260506120115 73 0.0 0.0 0.00 0.00 0.00 77 1025.0
20260506115613 73 0.0 0.0 0.00 0.00 0.00 77 1025.0
20260506115112 73 0.0 0.0 0.00 0.00 0.00 80 1024.9
20260506114610 73 0.0 0.0 0.00 0.00 0.00 76 1024.9
20260506114108 74 0.0 0.0 0.00 0.00 0.00 75 1024.8
20260506113607 71 0.0 0.0 0.00 0.00 0.00 82 1024.8
20260506113105 70 0.0 0.0 0.00 0.00 0.00 79 1024.8
20260506112603 73 0.0 0.0 0.00 0.00 0.00 75 1024.7
20260506112101 71 0.0 0.0 0.00 0.00 0.00 80 1024.7
20260506111600 71 0.0 0.0 0.00 0.00 0.00 79 1024.6
20260506111058 71 0.0 0.0 0.00 0.00 0.00 83 1024.6
20260506110557 71 0.0 0.0 0.00 0.00 0.00 86 1024.5
20260506110055 68 0.0 0.0 0.00 0.00 0.00 99 1024.5
20260506105554 65 0.0 0.0 0.00 0.00 0.00 99 1024.4
20260506105052 62 0.0 0.0 0.00 0.00 0.00 99 1024.4
20260506104550 60 0.0 0.0 0.00 0.00 0.00 99 1024.3
20260506104049 59 0.0 0.0 0.00 0.00 0.00 99 1024.2
20260506103547 58 0.0 0.0 0.00 0.00 0.00 99 1024.1
20260506103046 57 0.0 0.0 0.00 0.00 0.00 99 1024.2
20260506102544 56 0.0 0.0 0.00 0.00 0.00 99 1024.1
20260506102043 56 0.0 0.0 0.00 0.00 0.00 99 1024.0
20260506101541 56 0.0 0.0 0.00 0.00 0.00 99 1023.9
20260506101039 55 0.0 0.0 0.00 0.00 0.00 99 1024.0
20260506100538 55 0.0 0.0 0.00 0.00 0.00 99 1024.0
20260506100036 55 0.0 0.0 0.00 0.00 0.00 99 1024.0
20260506095534 55 0.0 0.0 0.00 0.00 0.00 99 1023.9
20260506095032 55 0.0 0.0 0.00 0.00 0.00 99 1024.0
20260506094531 55 0.0 0.0 0.00 0.00 0.00 99 1023.8
20260506094029 55 0.0 0.0 0.00 0.00 0.00 99 1023.8
20260506093527 55 0.0 0.0 0.00 0.00 0.00 99 1023.7
20260506093026 55 0.0 0.0 0.00 0.00 0.00 99 1023.6
20260506092524 55 0.0 0.0 0.00 0.00 0.00 99 1023.6
20260506092022 55 0.0 0.0 0.00 0.00 0.00 99 1023.6
20260506091521 55 0.0 0.0 0.00 0.00 0.00 99 1023.5
20260506091019 55 0.0 0.0 0.00 0.00 0.00 99 1023.3
20260506090517 55 0.0 0.0 0.00 0.00 0.00 99 1023.2
20260506090016 55 0.0 0.0 0.00 0.00 0.00 99 1023.2
20260506085514 55 0.0 0.0 0.00 0.00 0.00 99 1023.2
20260506085013 55 0.0 0.0 0.00 0.00 0.00 99 1023.2
20260506084511 55 0.0 0.0 0.00 0.00 0.00 99 1023.0
20260506084010 55 0.0 0.0 0.00 0.00 0.00 99 1023.0
20260506083508 55 0.0 0.0 0.00 0.00 0.00 99 1023.0
20260506083006 55 0.0 0.0 0.00 0.00 0.00 99 1023.0
20260506082505 55 0.0 0.0 0.00 0.00 0.00 99 1023.0
20260506082003 55 0.0 0.0 0.00 0.00 0.00 99 1022.9
20260506081502 56 0.0 0.0 0.00 0.00 0.00 99 1022.8
20260506080959 56 0.0 0.0 0.00 0.00 0.00 99 1022.9
20260506080458 56 0.0 0.0 0.00 0.00 0.00 99 1022.9
20260506073448 56 0.0 0.0 0.00 0.00 0.00 99 1022.4
20260506072946 56 0.0 0.0 0.00 0.00 0.00 99 1022.3
20260506072445 56 0.0 0.0 0.00 0.00 0.00 99 1022.3
20260506071943 56 0.0 0.0 0.00 0.00 0.00 99 1022.3
20260506071442 56 0.0 0.0 0.00 0.00 0.00 99 1022.3
20260506070940 56 0.0 0.0 0.00 0.00 0.00 99 1022.3
20260506070439 57 0.0 0.0 0.00 0.00 0.00 99 1022.2
20260506062426 57 0.0 0.0 0.00 0.00 0.00 99 1022.4
20260506061925 57 0.0 0.0 0.00 0.00 0.00 99 1022.4
20260506061423 57 0.0 0.0 0.00 0.00 0.00 99 1022.5
20260506060921 57 0.0 0.0 0.00 0.00 0.00 99 1022.6
20260506060420 57 0.0 0.0 0.00 0.00 0.00 99 1022.7
20260506051405 57 0.0 0.0 0.00 0.00 0.00 99 1023.1
20260506050903 57 0.0 0.0 0.00 0.00 0.00 99 1023.1
20260506050401 58 0.0 0.0 0.00 0.00 0.00 99 1023.1
20260506044857 58 0.0 0.0 0.00 0.00 0.00 99 1023.1
20260506044355 58 0.0 0.0 0.00 0.00 0.00 99 1023.2
20260506043854 58 0.0 0.0 0.00 0.00 0.00 99 1023.2
20260506043352 59 0.0 0.0 0.00 0.00 0.00 99 1023.2
20260506042850 58 0.0 0.0 0.00 0.00 0.00 99 1023.2
20260506042349 58 0.0 0.0 0.00 0.00 0.00 99 1023.2
20260506041848 58 0.0 0.0 0.00 0.00 0.00 99 1023.2
20260506041346 58 0.0 0.0 0.00 0.00 0.00 99 1023.2
20260506040844 58 0.0 0.0 0.00 0.00 0.00 99 1023.2
20260506040343 58 0.0 0.0 0.00 0.00 0.00 99 1023.2
20260506035841 59 0.0 0.0 0.00 0.00 0.00 99 1023.3
20260506035339 59 0.0 0.0 0.00 0.00 0.00 99 1023.3
20260506034838 59 0.0 0.0 0.00 0.00 0.00 99 1023.2
20260506034336 59 0.0 0.0 0.00 0.00 0.00 99 1023.3
20260506033835 59 0.0 0.0 0.00 0.00 0.00 99 1023.2
20260506033334 59 0.0 0.0 0.00 0.00 0.00 99 1023.2
20260506032832 59 0.0 0.0 0.00 0.00 0.00 99 1023.3
20260506032331 59 0.0 0.0 0.00 0.00 0.00 99 1023.3
20260506031829 59 0.0 0.0 0.00 0.00 0.00 99 1023.4
20260506031328 59 0.0 0.0 0.00 0.00 0.00 99 1023.5
20260506030826 59 0.0 0.0 0.00 0.00 0.00 99 1023.6
20260506030324 59 0.0 0.0 0.00 0.00 0.00 99 1023.6
20260506025823 59 0.0 0.0 0.00 0.00 0.00 99 1023.6
20260506025321 59 0.0 0.0 0.00 0.00 0.00 99 1023.6
20260506024819 59 0.0 0.0 0.00 0.00 0.00 99 1023.7
20260506024318 60 0.0 0.0 0.00 0.00 0.00 99 1023.7
20260506023816 60 0.0 0.0 0.00 0.00 0.00 99 1023.8
20260506023315 60 0.0 0.0 0.00 0.00 0.00 99 1023.8
20260506022814 60 0.0 0.0 0.00 0.00 0.00 99 1023.9
20260506022312 60 0.0 0.0 0.00 0.00 0.00 99 1023.9
20260506021811 60 0.0 0.0 0.00 0.00 0.00 99 1023.9
20260506021309 60 0.0 0.0 0.00 0.00 0.00 99 1023.9
20260506020807 60 0.0 0.0 0.00 0.00 0.00 99 1024.0
20260506020306 60 0.0 0.0 0.00 0.00 0.00 99 1024.0
20260506015804 60 0.0 0.0 0.00 0.00 0.00 99 1023.9
20260506015305 60 0.0 0.0 0.00 0.00 0.00 99 1023.9
20260506014800 60 0.0 0.0 0.00 0.00 0.00 99 1023.9
20260506014259 60 0.0 0.0 0.00 0.00 0.00 99 1023.9
20260506013757 60 0.0 0.0 0.00 0.00 0.00 99 1024.1
20260506013256 61 0.0 0.0 0.00 0.00 0.00 99 1024.1
20260506012754 61 0.0 0.0 0.00 0.00 0.00 99 1024.2
20260506012253 61 0.0 0.0 0.00 0.00 0.00 99 1024.2
20260506011752 61 0.0 0.0 0.00 0.00 0.00 99 1024.1
20260506011250 61 0.0 0.0 0.00 0.00 0.00 99 1024.0
20260506010748 61 0.0 0.0 0.00 0.00 0.00 99 1024.0
20260506010246 61 0.0 0.0 0.00 0.00 0.00 99 1024.0
20260506005744 62 0.0 0.0 0.00 0.00 0.00 99 1024.0
20260506005242 62 0.0 0.0 0.00 0.00 0.00 99 1024.0
20260506004740 62 0.0 0.0 0.00 0.00 0.00 99 1024.0
20260506004239 62 0.0 0.0 0.00 0.00 0.00 99 1024.0
20260506003737 62 0.0 0.0 0.00 0.00 0.00 99 1023.9
20260506003235 62 0.0 0.0 0.00 0.00 0.00 99 1023.9
20260506002733 62 0.0 0.0 0.00 0.00 0.00 99 1023.9
20260506002232 62 0.0 0.0 0.00 0.00 0.00 99 1023.9
20260506001730 62 0.0 0.0 0.00 0.00 0.00 99 1023.9
20260506001228 62 0.0 0.0 0.00 0.00 0.00 99 1023.9
20260506000726 63 0.0 0.0 0.00 0.00 0.00 99 1023.8
20260506000226 63 0.0 0.0 0.00 0.00 0.00 99 1023.8
20260505235722 63 0.0 0.0 0.00 0.00 0.00 99 1023.8
20260505235220 63 0.0 0.0 0.00 0.00 0.00 99 1023.8
20260505234718 63 0.0 0.0 0.00 0.00 0.00 99 1023.8
20260505234216 63 0.0 0.0 0.00 0.00 0.00 99 1023.8
20260505233714 64 0.0 0.0 0.00 0.00 0.00 99 1023.8
20260505233212 64 0.0 0.0 0.00 0.00 0.00 99 1023.7
20260505232710 64 0.0 0.0 0.00 0.00 0.00 99 1023.7
20260505232209 64 0.0 0.0 0.00 0.00 0.00 99 1023.7
20260505231707 64 0.0 0.0 0.00 0.00 0.00 99 1023.6
20260505231205 64 0.0 0.0 0.00 0.00 0.00 99 1023.6
20260505230703 65 0.0 0.0 0.00 0.00 0.00 99 1023.6
20260505230201 65 0.0 0.0 0.00 0.00 0.00 99 1023.6
20260505225700 65 0.0 0.0 0.00 0.00 0.00 99 1023.5
20260505225158 65 0.0 0.0 0.00 0.00 0.00 99 1023.5
20260505224656 65 0.0 0.0 0.00 0.00 0.00 99 1023.4
20260505224155 65 0.0 0.0 0.00 0.00 0.00 99 1023.3
20260505223653 65 0.0 0.0 0.00 0.00 0.00 99 1023.3
20260505223152 66 0.0 0.0 0.00 0.00 0.00 99 1023.3
20260505222650 66 0.0 0.0 0.00 0.00 0.00 99 1023.2
20260505222148 66 0.0 0.0 0.00 0.00 0.00 99 1023.2
20260505221646 66 0.0 0.0 0.00 0.00 0.00 99 1023.1
20260505221145 66 0.0 0.0 0.00 0.00 0.00 99 1023.1
20260505220643 67 0.0 0.0 0.00 0.00 0.00 99 1023.1
20260505220141 67 0.0 0.0 0.00 0.00 0.00 99 1023.1
20260505215640 67 0.0 0.0 0.00 0.00 0.00 99 1023.1
20260505215138 68 0.0 0.0 0.00 0.00 0.00 99 1023.1
20260505214637 68 0.0 0.0 0.00 0.00 0.00 99 1023.0
20260505214135 68 0.0 0.0 0.00 0.00 0.00 99 1023.0
20260505213633 68 0.0 0.0 0.00 0.00 0.00 98 1023.0
20260505213131 69 0.0 0.0 0.00 0.00 0.00 96 1023.0
20260505212629 69 0.0 0.0 0.00 0.00 0.00 94 1022.9
20260505212128 69 0.0 0.0 0.00 0.00 0.00 91 1022.9
20260505211626 69 0.0 0.0 0.00 0.00 0.00 89 1022.8
20260505211124 70 0.0 0.0 0.00 0.00 0.00 87 1022.8
20260505210622 70 0.0 0.0 0.00 0.00 0.00 84 1022.8
20260505210120 71 0.0 0.0 0.00 0.00 0.00 80 1022.7
20260505205618 72 0.0 0.0 0.00 0.00 0.00 77 1022.6
20260505205116 72 0.0 0.0 0.00 0.00 0.00 74 1022.6
20260505204614 73 0.0 0.0 0.00 0.00 0.00 70 1022.5
20260505204113 74 0.0 0.0 0.00 0.00 0.00 67 1022.4
20260505203611 74 0.0 0.0 0.00 0.00 0.00 66 1022.4
20260505203110 75 0.0 0.0 0.00 0.00 0.00 64 1022.4
20260505202608 75 0.0 0.0 0.00 0.00 0.00 62 1022.4
20260505202106 76 0.0 0.0 0.00 0.00 0.00 61 1022.3
20260505201604 77 0.0 0.0 0.00 0.00 0.00 60 1022.3
20260505201102 77 0.0 0.0 0.00 0.00 0.00 59 1022.3
20260505200600 78 0.0 0.0 0.00 0.00 0.00 57 1022.3
20260505200058 78 0.0 0.0 0.00 0.00 0.00 57 1022.4
20260505195556 78 0.0 0.0 0.00 0.00 0.00 56 1022.4
20260505195055 80 0.0 0.0 0.00 0.00 0.00 52 1022.3
20260505194553 80 0.0 0.0 0.00 0.00 0.00 52 1022.3
20260505194051 79 0.0 0.0 0.00 0.00 0.00 54 1022.3
20260505193549 78 0.0 0.0 0.00 0.00 0.00 54 1022.2
20260505193047 78 0.0 0.0 0.00 0.00 0.00 54 1022.2
20260505192545 78 0.0 0.0 0.00 0.00 0.00 53 1022.2
20260505192044 79 0.0 0.0 0.00 0.00 0.00 52 1022.1
20260505191542 80 0.0 0.0 0.00 0.00 0.00 51 1022.1
20260505191041 82 0.0 0.0 0.00 0.00 0.00 48 1022.2
20260505190539 84 0.0 0.0 0.00 0.00 0.00 45 1022.2
20260505190037 85 0.0 0.0 0.00 0.00 0.00 44 1022.3
20260505185536 85 0.0 0.0 0.00 0.00 0.00 44 1022.3
20260505185034 85 0.0 0.0 0.00 0.00 0.00 44 1022.4
20260505184532 85 0.0 0.0 0.00 0.00 0.00 42 1022.4
20260505184031 86 0.0 0.0 0.00 0.00 0.00 42 1022.3
20260505183528 86 0.0 0.0 0.00 0.00 0.00 42 1022.3
20260505183027 86 0.0 0.0 0.00 0.00 0.00 42 1022.4
20260505182525 83 0.0 0.0 0.00 0.00 0.00 44 1022.3
20260505182023 83 0.0 0.0 0.00 0.00 0.00 45 1022.4
20260505181521 84 0.0 0.0 0.00 0.00 0.00 44 1022.4
20260505181020 85 0.0 0.0 0.00 0.00 0.00 44 1022.4
20260505180518 87 0.0 0.0 0.00 0.00 0.00 40 1022.5
20260505180016 85 0.0 0.0 0.00 0.00 0.00 42 1022.4
20260505175515 84 0.0 0.0 0.00 0.00 0.00 45 1022.4
20260505175013 80 0.0 0.0 0.00 0.00 0.00 51 1022.5
20260505174511 80 0.0 0.0 0.00 0.00 0.00 50 1022.5
20260505174009 80 0.0 0.0 0.00 0.00 0.00 49 1022.6
20260505173508 81 0.0 0.0 0.00 0.00 0.00 48 1022.6
20260505173006 81 0.0 0.0 0.00 0.00 0.00 48 1022.7
20260505172505 81 0.0 0.0 0.00 0.00 0.00 46 1022.7
20260505172003 84 0.0 0.0 0.00 0.00 0.00 43 1022.7
20260505171501 83 0.0 0.0 0.00 0.00 0.00 46 1022.7
20260505171000 82 0.0 0.0 0.00 0.00 0.00 47 1022.7
20260505170458 82 0.0 0.0 0.00 0.00 0.00 46 1022.7
20260505165956 85 0.0 0.0 0.00 0.00 0.00 44 1022.7
20260505165454 82 0.0 0.0 0.00 0.00 0.00 48 1022.7
20260505164952 84 0.0 0.0 0.00 0.00 0.00 46 1022.8
20260505164451 80 0.0 0.0 0.00 0.00 0.00 50 1022.9
20260505163949 80 0.0 0.0 0.00 0.00 0.00 50 1022.9
20260505163448 80 0.0 0.0 0.00 0.00 0.00 51 1023.0
20260505162946 84 0.0 0.0 0.00 0.00 0.00 47 1022.9
20260505162445 85 0.0 0.0 0.00 0.00 0.00 45 1023.0
20260505161943 84 0.0 0.0 0.00 0.00 0.00 45 1023.1
20260505161441 86 0.0 0.0 0.00 0.00 0.00 45 1023.1
20260505160940 85 0.0 0.0 0.00 0.00 0.00 44 1023.1
20260505160439 85 0.0 0.0 0.00 0.00 0.00 46 1023.2
20260505152926 82 0.0 0.0 0.00 0.00 0.00 48 1023.6
20260505152424 84 0.0 0.0 0.00 0.00 0.00 49 1023.6
20260505151923 82 0.0 0.0 0.00 0.00 0.00 53 1023.6
20260505151421 84 0.0 0.0 0.00 0.00 0.00 53 1023.7
20260505150919 81 0.0 0.0 0.00 0.00 0.00 58 1023.8
20260505150418 82 0.0 0.0 0.00 0.00 0.00 56 1023.8
20260505140357 79 0.0 0.0 0.00 0.00 0.00 62 1024.3